Weather in Neftegorsk

Russia / Sakhalin District     52°59′50″N   142°56′41″E
В апреле 2022 года жителям России запретили посещать сайт meteo.paraplan.net по решению Генеральной прокуратуры. Аудитория сайта уменьшилась в 10 раз. Владельцы сайта не видят смысла в поддержке погодного сервера в таких условиях. Сайт будет закрыт в октябре.
temp.,
°C
wind,
m/s
gust,
m/s
humid.,
%
clouds,
%
prec.,
mm/h
press.,
hPa
HPBL,
m
25 september, sun
sun2523:00+10ene111798100 16.9 1002628
02:00+10ene101598100 3.8 998692
05:00+10ne81298100 4.9 996517
08:00+10nnw6898100 0.4 995478
11:00+10nw91395100 2.6 996539
14:00+10nw111589100 0.0 999935
17:00+9nnw101590100 0.1 1003922
20:00+7nnw91389100 0.1 1008759
26 september, mon
mon2623:00+7nw7128699 0.1 1010801
02:00+7nw61086100 0.0 1012484
05:00+5nnw34905 0.0 101377
08:00+5sw11915 0.0 101417
11:00+9se3470100 0.0 1013540
14:00+11sse7768100 0.0 1011714
17:00+10sse9117699 0.0 1009514
20:00+9sse91587100 0.0 1009412
27 september, tue
tue2723:00+9s81395100 0.9 1006311
02:00+9ssw4797100 0.8 1004130
05:00+9w6118886 0.8 1004325
08:00+6w61280100 0.0 1005415
11:00+9w9145798 0.0 10041537
14:00+10w10135170 0.0 10041951
17:00+9wnw11157133 0.1 10051345
20:00+7wnw915695 0.0 1007677
28 september, wed
wed2823:00+5w597884 0.0 1008236
02:00+5w587995 0.0 1009142
05:00+4wsw2275100 0.0 100718
08:00+6sse4671100 0.0 1005105
11:00+8sse71295100 1.4 1002474
14:00+10s61389100 1.0 999489
17:00+13wnw6107911 1.1 999717
20:00+8wnw815790 0.0 1002458
29 september, thu
thu2923:00+7nw101374100 0.0 1005966
02:00+6wnw71282100 0.1 1006517
05:00+6wnw71281100 0.2 1008701
08:00+4w611838 0.1 1010332
11:00+8wnw9115913 0.1 10111388
14:00+9wnw911485 0.0 10111419
17:00+9wnw710495 0.0 10111368
20:00+4wnw3369100 0.0 101234